Time,TemperatureF,DewpointF,PressureIn,WindDirection,WindDirectionDegrees,WindSpeedMPH,WindSpeedGustMPH,Humidity,HourlyPrecipIn,Conditions,Clouds,dailyrainin,SolarRadiationWatts/m^2,SoftwareType,DateUTC
2013-02-26 00:01:00,33.0,13.0,-100.00,WNW,291,0.0,3.0,44,0.00,,,0.00,0.000000,,2013-02-26 08:01:00,
2013-02-26 00:11:00,33.0,13.0,-100.00,WNW,291,0.0,3.0,44,0.00,,,0.00,0.000000,,2013-02-26 08:11:00,
2013-02-26 00:42:00,33.0,13.0,-100.00,NW,306,0.0,0.0,44,0.00,,,0.00,0.000000,,2013-02-26 08:42:00,
2013-02-26 00:52:00,33.0,13.0,-100.00,NW,306,0.0,0.0,44,0.00,,,0.00,0.000000,,2013-02-26 08:52:00,
2013-02-26 01:01:00,33.0,13.0,-100.00,NW,306,0.0,0.0,44,0.00,,,0.00,0.000000,,2013-02-26 09:01:00,
2013-02-26 01:11:00,33.0,13.0,-100.00,NW,306,0.0,0.0,44,0.00,,,0.00,0.000000,,2013-02-26 09:11:00,
2013-02-26 01:43:00,35.0,13.0,-100.00,SSE,157,0.0,4.0,39,0.00,,,0.00,0.000000,,2013-02-26 09:43:00,
2013-02-26 01:52:00,35.0,13.0,-100.00,SSE,157,0.0,4.0,39,0.00,,,0.00,0.000000,,2013-02-26 09:52:00,
2013-02-26 02:01:00,35.0,13.0,-100.00,SSE,157,0.0,4.0,39,0.00,,,0.00,0.000000,,2013-02-26 10:01:00,
2013-02-26 02:11:00,35.0,13.0,-100.00,SSE,157,0.0,4.0,39,0.00,,,0.00,0.000000,,2013-02-26 10:11:00,
2013-02-26 02:42:00,34.0,11.0,-100.00,East,98,1.0,4.0,37,0.00,,,0.00,0.000000,,2013-02-26 10:42:00,
2013-02-26 02:52:00,34.0,11.0,-100.00,East,98,1.0,4.0,37,0.00,,,0.00,0.000000,,2013-02-26 10:52:00,
2013-02-26 03:01:00,34.0,11.0,-100.00,East,98,1.0,4.0,37,0.00,,,0.00,0.000000,,2013-02-26 11:01:00,
2013-02-26 03:11:00,34.0,11.0,-100.00,East,98,1.0,4.0,37,0.00,,,0.00,0.000000,,2013-02-26 11:11:00,
2013-02-26 03:32:00,33.0,7.0,-100.00,South,170,0.0,6.0,33,0.00,,,0.00,0.000000,,2013-02-26 11:32:00,
2013-02-26 03:42:00,33.0,7.0,-100.00,South,170,0.0,6.0,33,0.00,,,0.00,0.000000,,2013-02-26 11:42:00,
2013-02-26 03:52:00,33.0,7.0,-100.00,South,170,0.0,6.0,33,0.00,,,0.00,0.000000,,2013-02-26 11:52:00,
2013-02-26 04:01:00,33.0,7.0,-100.00,South,170,0.0,6.0,33,0.00,,,0.00,0.000000,,2013-02-26 12:01:00,
2013-02-26 04:32:00,34.0,7.0,-100.00,East,93,0.0,5.0,31,-99.99,,,0.00,0.000000,,2013-02-26 12:32:00,
2013-02-26 04:42:00,34.0,7.0,-100.00,East,93,0.0,5.0,31,-99.99,,,0.00,0.000000,,2013-02-26 12:42:00,
2013-02-26 04:53:00,34.0,7.0,-100.00,East,93,0.0,5.0,31,-99.99,,,0.00,0.000000,,2013-02-26 12:53:00,
2013-02-26 05:01:00,34.0,7.0,-100.00,East,93,0.0,5.0,31,-99.99,,,0.00,0.000000,,2013-02-26 13:01:00,
2013-02-26 05:42:00,32.0,7.0,-100.00,East,93,4.0,6.0,34,0.00,,,0.00,0.000000,,2013-02-26 13:42:00,
2013-02-26 05:52:00,32.0,7.0,-100.00,East,93,4.0,6.0,34,0.00,,,0.00,0.000000,,2013-02-26 13:52:00,
2013-02-26 06:01:00,32.0,7.0,-100.00,East,93,4.0,6.0,34,0.00,,,0.00,0.000000,,2013-02-26 14:01:00,
2013-02-26 06:32:00,34.0,4.0,-100.00,East,100,3.0,8.0,27,0.00,,,0.00,0.000000,,2013-02-26 14:32:00,
2013-02-26 06:42:00,34.0,4.0,-100.00,East,100,3.0,8.0,27,0.00,,,0.00,0.000000,,2013-02-26 14:42:00,
2013-02-26 06:52:00,34.0,4.0,-100.00,East,100,3.0,8.0,27,0.00,,,0.00,0.000000,,2013-02-26 14:52:00,
2013-02-26 07:02:00,34.0,4.0,-100.00,East,100,3.0,8.0,27,0.00,,,0.00,0.000000,,2013-02-26 15:02:00,
2013-02-26 07:32:00,39.0,9.0,-100.00,SE,127,4.0,10.0,29,0.00,,,0.00,15.000000,,2013-02-26 15:32:00,
2013-02-26 07:42:00,39.0,9.0,-100.00,SE,127,4.0,10.0,29,0.00,,,0.00,15.000000,,2013-02-26 15:42:00,
2013-02-26 07:52:00,39.0,9.0,-100.00,SE,127,4.0,10.0,29,0.00,,,0.00,15.000000,,2013-02-26 15:52:00,
2013-02-26 08:01:00,39.0,9.0,-100.00,SE,127,4.0,10.0,29,0.00,,,0.00,15.000000,,2013-02-26 16:01:00,
2013-02-26 08:32:00,52.0,12.0,-100.00,SE,139,7.0,11.0,20,0.00,,,0.00,268.000000,,2013-02-26 16:32:00,
2013-02-26 08:42:00,52.0,12.0,-100.00,SE,139,7.0,11.0,20,0.00,,,0.00,268.000000,,2013-02-26 16:42:00,
2013-02-26 08:52:00,52.0,12.0,-100.00,SE,139,7.0,11.0,20,0.00,,,0.00,268.000000,,2013-02-26 16:52:00,
2013-02-26 09:01:00,52.0,12.0,-100.00,SE,139,7.0,11.0,20,0.00,,,0.00,268.000000,,2013-02-26 17:01:00,
2013-02-26 09:42:00,59.0,14.0,-100.00,East,93,8.0,13.0,17,0.00,,,0.00,597.000000,,2013-02-26 17:42:00,
2013-02-26 09:52:00,59.0,14.0,-100.00,East,93,8.0,13.0,17,0.00,,,0.00,597.000000,,2013-02-26 17:52:00,
2013-02-26 10:01:00,59.0,14.0,-100.00,East,93,8.0,13.0,17,0.00,,,0.00,597.000000,,2013-02-26 18:01:00,
2013-02-26 10:12:00,59.0,14.0,-100.00,East,93,8.0,13.0,17,0.00,,,0.00,597.000000,,2013-02-26 18:12:00,
2013-02-26 10:32:00,60.0,15.0,-100.00,ESE,106,6.0,20.0,17,0.00,,,0.00,808.000000,,2013-02-26 18:32:00,
2013-02-26 10:42:00,60.0,15.0,-100.00,ESE,106,6.0,20.0,17,0.00,,,0.00,808.000000,,2013-02-26 18:42:00,
2013-02-26 10:52:00,60.0,15.0,-100.00,ESE,106,6.0,20.0,17,0.00,,,0.00,808.000000,,2013-02-26 18:52:00,
2013-02-26 11:01:00,60.0,15.0,-100.00,ESE,106,6.0,20.0,17,0.00,,,0.00,808.000000,,2013-02-26 19:01:00,
2013-02-26 11:42:00,61.0,16.0,-100.00,East,97,7.0,17.0,17,-99.99,,,0.00,957.000000,,2013-02-26 19:42:00,
2013-02-26 11:52:00,61.0,16.0,-100.00,East,97,7.0,17.0,17,-99.99,,,0.00,957.000000,,2013-02-26 19:52:00,
2013-02-26 12:01:00,61.0,16.0,-100.00,East,97,7.0,17.0,17,-99.99,,,0.00,957.000000,,2013-02-26 20:01:00,
2013-02-26 12:11:00,61.0,16.0,-100.00,East,97,7.0,17.0,17,-99.99,,,0.00,957.000000,,2013-02-26 20:11:00,
2013-02-26 14:42:00,60.0,12.0,-100.00,ESE,116,7.0,14.0,15,-99.99,,,0.00,907.000000,,2013-02-26 22:42:00,
2013-02-26 14:52:00,60.0,12.0,-100.00,ESE,116,7.0,14.0,15,-99.99,,,0.00,907.000000,,2013-02-26 22:52:00,
2013-02-26 15:01:00,60.0,12.0,-100.00,ESE,116,7.0,14.0,15,-99.99,,,0.00,907.000000,,2013-02-26 23:01:00,
2013-02-26 15:11:00,60.0,12.0,-100.00,ESE,116,7.0,14.0,15,-99.99,,,0.00,907.000000,,2013-02-26 23:11:00,
2013-02-26 15:42:00,60.0,14.0,-100.00,SE,141,5.0,13.0,16,0.00,,,0.00,733.000000,,2013-02-26 23:42:00,
2013-02-26 15:52:00,60.0,14.0,-100.00,SE,141,5.0,13.0,16,0.00,,,0.00,733.000000,,2013-02-26 23:52:00,
2013-02-26 16:01:00,60.0,14.0,-100.00,SE,141,5.0,13.0,16,0.00,,,0.00,733.000000,,2013-02-27 00:01:00,
2013-02-26 16:11:00,60.0,14.0,-100.00,SE,141,5.0,13.0,16,0.00,,,0.00,733.000000,,2013-02-27 00:11:00,
2013-02-26 16:42:00,58.0,13.0,-100.00,ESE,115,5.0,12.0,17,0.00,,,0.00,493.000000,,2013-02-27 00:42:00,
2013-02-26 16:52:00,58.0,13.0,-100.00,ESE,115,5.0,12.0,17,0.00,,,0.00,493.000000,,2013-02-27 00:52:00,
2013-02-26 17:01:00,58.0,13.0,-100.00,ESE,115,5.0,12.0,17,0.00,,,0.00,493.000000,,2013-02-27 01:01:00,
2013-02-26 17:11:00,58.0,13.0,-100.00,ESE,115,5.0,12.0,17,0.00,,,0.00,493.000000,,2013-02-27 01:11:00,
2013-02-26 17:42:00,50.0,9.0,-100.00,SE,141,4.0,10.0,19,-99.99,,,0.00,91.000000,,2013-02-27 01:42:00,
2013-02-26 17:52:00,50.0,9.0,-100.00,SE,141,4.0,10.0,19,-99.99,,,0.00,91.000000,,2013-02-27 01:52:00,
2013-02-26 18:01:00,50.0,9.0,-100.00,SE,141,4.0,10.0,19,-99.99,,,0.00,91.000000,,2013-02-27 02:01:00,
2013-02-26 18:13:00,50.0,9.0,-100.00,SE,141,4.0,10.0,19,-99.99,,,0.00,91.000000,,2013-02-27 02:13:00,
2013-02-26 18:42:00,40.0,8.0,-100.00,SE,140,1.0,9.0,26,0.00,,,0.00,11.000000,,2013-02-27 02:42:00,
2013-02-26 18:52:00,40.0,8.0,-100.00,SE,140,1.0,9.0,26,0.00,,,0.00,11.000000,,2013-02-27 02:52:00,
2013-02-26 19:01:00,40.0,8.0,-100.00,SE,140,1.0,9.0,26,0.00,,,0.00,11.000000,,2013-02-27 03:01:00,
2013-02-26 19:11:00,40.0,8.0,-100.00,SE,140,1.0,9.0,26,0.00,,,0.00,11.000000,,2013-02-27 03:11:00,
2013-02-26 19:32:00,41.0,8.0,-100.00,ENE,78,6.0,10.0,25,0.00,,,0.00,0.000000,,2013-02-27 03:32:00,
2013-02-26 19:42:00,41.0,8.0,-100.00,ENE,78,6.0,10.0,25,0.00,,,0.00,0.000000,,2013-02-27 03:42:00,
2013-02-26 19:52:00,41.0,8.0,-100.00,ENE,78,6.0,10.0,25,0.00,,,0.00,0.000000,,2013-02-27 03:52:00,
2013-02-26 20:01:00,41.0,8.0,-100.00,ENE,78,6.0,10.0,25,0.00,,,0.00,0.000000,,2013-02-27 04:01:00,
2013-02-26 20:11:00,41.0,8.0,-100.00,ENE,78,6.0,10.0,25,0.00,,,0.00,0.000000,,2013-02-27 04:11:00,
2013-02-26 20:42:00,38.0,4.0,-100.00,ESE,106,2.0,11.0,24,0.00,,,0.00,0.000000,,2013-02-27 04:42:00,
2013-02-26 20:52:00,38.0,4.0,-100.00,ESE,106,2.0,11.0,24,0.00,,,0.00,0.000000,,2013-02-27 04:52:00,
2013-02-26 21:01:00,38.0,4.0,-100.00,ESE,106,2.0,11.0,24,0.00,,,0.00,0.000000,,2013-02-27 05:01:00,
2013-02-26 21:11:00,38.0,4.0,-100.00,ESE,106,2.0,11.0,24,0.00,,,0.00,0.000000,,2013-02-27 05:11:00,
2013-02-26 21:42:00,42.0,3.0,-100.00,ENE,72,4.0,10.0,19,0.00,,,0.00,0.000000,,2013-02-27 05:42:00,
2013-02-26 21:52:00,42.0,3.0,-100.00,ENE,72,4.0,10.0,19,0.00,,,0.00,0.000000,,2013-02-27 05:52:00,
2013-02-26 22:02:00,42.0,3.0,-100.00,ENE,72,4.0,10.0,19,0.00,,,0.00,0.000000,,2013-02-27 06:02:00,
2013-02-26 22:11:00,42.0,3.0,-100.00,ENE,72,4.0,10.0,19,0.00,,,0.00,0.000000,,2013-02-27 06:11:00,
2013-02-26 22:33:00,40.0,-3.0,-100.00,East,89,1.0,12.0,16,0.00,,,0.00,0.000000,,2013-02-27 06:33:00,
2013-02-26 22:42:00,40.0,-3.0,-100.00,East,89,1.0,12.0,16,0.00,,,0.00,0.000000,,2013-02-27 06:42:00,
2013-02-26 22:52:00,40.0,-3.0,-100.00,East,89,1.0,12.0,16,0.00,,,0.00,0.000000,,2013-02-27 06:52:00,
2013-02-26 23:01:00,40.0,-3.0,-100.00,East,89,1.0,12.0,16,0.00,,,0.00,0.000000,,2013-02-27 07:01:00,
2013-02-26 23:32:00,40.0,3.0,-100.00,East,88,3.0,8.0,21,0.00,,,0.00,0.000000,,2013-02-27 07:32:00,
2013-02-26 23:42:00,40.0,3.0,-100.00,East,88,3.0,8.0,21,0.00,,,0.00,0.000000,,2013-02-27 07:42:00,
2013-02-26 23:52:00,40.0,3.0,-100.00,East,88,3.0,8.0,21,0.00,,,0.00,0.000000,,2013-02-27 07:52:00,